Weather in Korsakov

Russia / Sakhalin District     46°38′05″N   142°46′57″E
temp.,
°C
wind,
m/s
gust,
m/s
humid.,
%
clouds,
%
prec.,
mm/h
press.,
hPa
HPBL,
m
28 june, tue
tue2823:00+13sw2286100 0.0 100770
02:00+13wnw3783100 0.0 1007211
05:00+11nw24874 0.0 100794
08:00+13w23831 0.0 1008206
11:00+19wnw34695 0.0 1007686
14:00+19s4370100 0.0 1006648
17:00+19sse1269100 0.0 1005517
20:00+15ese3489100 0.0 1005168
29 june, wed
wed2923:00+13e2295100 0.0 100555
02:00+12sse1196100 0.0 100422
05:00+13ne2491100 0.1 1003137
08:00+13ene3687100 0.0 1003267
11:00+17ne347250 0.0 1004607
14:00+18ese226784 0.0 1005847
17:00+17ese237190 0.0 1006440
20:00+14ese228164 0.0 1008226
30 june, thu
thu3023:00+11e238677 0.0 100990
02:00+9ne119442 0.0 101023
05:00+9nne119412 0.0 101116
08:00+12sw018412 0.0 1013193
11:00+16ssw227261 0.0 1013736
14:00+15s337499 0.0 1014526
17:00+16ssw337491 0.0 1015451
20:00+13ssw338571 0.0 1016230
1 july, fri
fri123:00+10ssw1196100 0.0 101722
02:00+10ssw1195100 0.0 101718
05:00+9ssw119547 0.0 101712
08:00+12ssw1286100 0.0 1017205
11:00+15ssw3474100 0.0 1017463
14:00+16ssw4468100 0.0 1016494
17:00+15ssw447298 0.0 1015345
20:00+13s348398 0.0 1014228
2 july, sat
sat223:00+11ssw2295100 0.0 101429
02:00+10wsw1195100 0.0 101211
05:00+12ssw0191100 0.0 101139
08:00+13ssw1293100 0.0 101083
11:00+14ssw1297100 0.1 1010147
14:00+17ssw249699 0.3 1008265
17:00+18ssw468852 0.4 1007416
20:00+17ssw489227 0.0 1006209